Regional Weather Roundup
Issued by NWS

Home | Current Version | Previous Version | Graphics & Text | Print | Product List | Glossary On
Versions: 1 2 3 4 5 6 7 8 9 10 11 12 13 14 15 16 17 18 19 20 21 22 23 24 25 26 27 28 29 30 31 32 33 34 35 36 37 38 39 40 41 42 43 44 45 46 47 48 49 50
000
ASUS43 KIND 031009
RWRIN

WEATHER ROUNDUP FOR INDIANA
NATIONAL WEATHER SERVICE INDIANAPOLIS IN
600 AM EDT MON AUG 03 2015

NOTE: "FAIR" INDICATES FEW OR NO CLOUDS BELOW 12,000 FEET WITH NO
SIGNIFICANT WEATHER AND/OR OBSTRUCTIONS TO VISIBILITY.

* - STATION DOES NOT REPORT WEATHER SUCH AS PRECIPITATION OR FOG.

+ - STATION NOT QUALITY CONTROLLED BY THE NATIONAL WEATHER SERVICE.
    USE DATA WITH CAUTION...ESPECIALLY DEWPOINT AND RELATIVE
    HUMIDITY OBSERVATIONS.

INZ001>003-010>013-019-020-031100-
NORTHWEST INDIANA

CITY           SKY/WX    TMP DP  RH WIND       PRES   REMARKS
GARY /AIRPORT/ PTCLDY    68  66  94 W5        29.78R
KNOX *+        PTCLDY    61  61 100 CALM      29.77R
LA PORTE +     MOCLDY   N/A N/A N/A W3        29.79R HAZE
MICHIGAN CITY+ PTCLDY    61  61 100 CALM      29.78R FOG
MONTICELLO +   CLOUDY    66  66 100 N3        29.78R
RENSSELAER +   CLEAR     64  64 100 CALM      29.79R
VALPARAISO     MOCLDY    64  63  96 W3        29.79R

$$

LMZ046-743>745-031100-
SOUTHERN LAKE MICHIGAN

STATION/POSITION TIME  TEMP    WIND        PRES    WAVE
                       AIR SEA DIR/SP/G            HT
                 (UTC) (F)     (DEG/KT/KT) (MB)    (FT)
BURNS HARBOR     0900   72     290/  4/  6 1008.1S
MICHIGAN CITY    0900   70     290/  3/  4   N/A
5NW MICH CITY    1000   72 73  310/  4/  6   N/A     2

$$

INZ004-005-014>016-021>024-031100-
NORTH CENTRAL INDIANA

CITY           SKY/WX    TMP DP  RH WIND       PRES   REMARKS
GOSHEN         CLOUDY    64  62  93 SW7       29.78R
LOGANSPORT +   MOCLDY    64  61  88 CALM      29.79S
PERU/GRISSOM   MOCLDY    66  64  93 SW5       29.78R
ROCHESTER +    MOCLDY    64  64 100 SW6       29.79R
SOUTH BEND     MOCLDY    65  63  93 SW3       29.77S
WARSAW +       CLOUDY    61  61 100 W3        29.79R

$$

INZ006>009-017-018-025>027-031100-
NORTHEAST INDIANA

CITY           SKY/WX    TMP DP  RH WIND       PRES   REMARKS
ANGOLA *+      CLOUDY    63  63 100 SW3       29.79R
AUBURN +       CLOUDY    63  61  94 CALM      29.80R
FORT WAYNE     CLOUDY    64  62  93 S10       29.80S
HUNTINGTON +   CLOUDY    64  63  96 CALM      29.80R

$$

INZ028-029-035-036-043>045-051>053-031100-
WEST CENTRAL INDIANA

CITY           SKY/WX    TMP DP  RH WIND       PRES   REMARKS
CRAWFORDSVL +  CLOUDY    70  70 100 SW6         N/A
GREENCASTLE +  PTCLDY    72  66  83 S3        29.81F
LAFAYETTE      CLEAR     66  65  96 CALM      29.78F
TERRE HAUTE    CLEAR     74  70  87 SW8       29.82R

$$

INZ030>032-037>040-046>048-054>057-064-065-031100-
CENTRAL INDIANA

CITY           SKY/WX    TMP DP  RH WIND       PRES   REMARKS
FISHERS *+     CLOUDY    64  64 100 E3        29.82S
FRANKFORT +    MOCLDY   N/A N/A N/A CALM      29.81F
GREENWOOD *+   CLOUDY    72  59  64 SE6       29.84R
INDIANAPOLIS   CLOUDY    71  62  73 SE8       29.80S
-EAGLE CREEK   CLOUDY    67  64  90 E3        29.81F
KOKOMO *+      CLOUDY    64  61  88 S8        29.80R
MARION +       CLOUDY    64  64  97 S8        29.80S
MT COMFORT *+  CLOUDY    64 N/A N/A SE5       29.83S
SHELBYVILLE    CLOUDY    68  63  84 SE12      29.82F THUNDER
ZIONSVILLE +   CLOUDY    66  63  88 SW3       29.82R

$$

INZ033-034-041-042-049-050-058-059-031100-
EAST CENTRAL INDIANA

CITY           SKY/WX    TMP DP  RH WIND       PRES   REMARKS
MUNCIE         CLOUDY    63  63 100 SE6       29.82F

$$

INZ060-061-067>069-081>083-085>088-031100-
SOUTHWEST INDIANA

CITY           SKY/WX    TMP DP  RH WIND       PRES   REMARKS
EVANSVILLE     CLEAR     73  67  81 SW6       29.85S
HUNTINGBURG *+ CLEAR     72  63  73 S6        29.85S
WASHINGTON +   CLOUDY    74  67  78 SW6       29.83S

$$

INZ062-063-066-070>080-084-089>092-031100-
SOUTH CENTRAL AND SOUTHEAST INDIANA

CITY           SKY/WX    TMP DP  RH WIND       PRES   REMARKS
BLOOMINGTON    PTCLDY    74  68  81 SW8       29.83S
MADISON *+     CLEAR     68  61  77 CALM      29.89S
NORTH VERNON + PTCLDY    70  64  83 S5        29.86R
SEYMOUR +      CLEAR     70  64  83 S6        29.84S

$$




USA.gov is the U.S. government's official web portal to all federal, state and local government web resources and services.